Regional Weather Roundup
Issued by NWS

Home | Current Version | Previous Version | Text Only | Print | Product List | Glossary Off
Versions: 1 2 3 4 5 6 7 8 9 10 11 12 13 14 15 16 17 18 19 20 21 22 23 24 25 26 27 28 29 30 31 32 33 34 35 36 37 38 39 40 41 42 43 44 45 46 47 48 49 50

000
ASUS45 KBOU 170307
RWRCO

WEATHER ROUNDUP FOR COLORADO
NATIONAL WEATHER SERVICE DENVER/BOULDER CO
900 PM MDT TUE SEP 16 2014

NOTE: "FAIR" INDICATES FEW OR NO CLOUDS BELOW 12000 FEET WITH NO
SIGNIFICANT WEATHER AND/OR OBSTRUCTIONS TO VISIBILITY.

COZ001>005-013-030-031-170400-
...NORTHWEST COLORADO...

CITY           SKY/WX    TMP DP  RH WIND       PRES   REMARKS
CRAIG          PTCLDY    56  43  61 CALM      30.19R
HAYDEN         PTCLDY    61  30  31 CALM      30.21R
MEEKER         CLEAR     59  40  49 CALM      30.21R
MOUNT WERNER   NOT AVBL
STEAMBOAT SPGS PTCLDY    59  38  45 SE5       30.24R
WALDEN         PTCLDY    50  32  50 SE9       30.34R
$$

COZ006>008-011-170400-
...WEST CENTRAL VALLEYS...

CITY           SKY/WX    TMP DP  RH WIND       PRES   REMARKS
GRAND JUNCTION CLEAR     67  43  41 E3        30.07R
MONTROSE       CLEAR     68  45  43 S9        30.17R
EAGLE          CLEAR     63  41  45 NE6       30.25R
RIFLE          PTCLDY    63  45  51 SE7       30.14R
DELTA          CLEAR     73  39  28 NE3       30.10R
NUCLA          CLEAR     73  37  27 CALM      30.20R
$$

COZ017>023-064>068-170400-
...SOUTHWEST COLORADO...

CITY           SKY/WX    TMP DP  RH WIND       PRES   REMARKS
DURANGO        MOCLDY    66  46  48 E6        30.24R
CORTEZ         CLEAR     62  50  64 N5        30.18R
PAGOSA SPRINGS MOCLDY    60  42  51 CALM      30.34R
TELLURIDE      NOT AVBL
WOLF CREEK PAS CLOUDY    45  37  76 SW17      30.61R
$$

COZ009-010-012-014-032>034-037-058>063-170400-
...CENTRAL COLORADO...

CITY           SKY/WX    TMP DP  RH WIND       PRES   REMARKS
ASPEN          CLEAR     54  37  52 SW9         N/A
BUENA VISTA    MOCLDY    63  32  31 W7        30.32R
COPPER MTN     PTCLDY    54  30  40 W9        30.64R
BERTHOUD PASS  FAIR      43  41  93 NW9       30.67S
COTTONWOOD PAS CLOUDY    64  23  20 CALM      30.47R
GUNNISON       CLEAR     59  36  41 W5        30.31R
KREMMLING      CLEAR     50  34  53 CALM      30.31R
LEADVILLE      PTCLDY    46  29  51 N7        30.47R
MONARCH PASS   CLOUDY    52  28  40 NE6       30.72R
SALIDA         PTCLDY    66  36  33 SW9       30.35R
SUNLIGHT       PTCLDY    55  34  44 NW5       30.55S
WILKERSON PASS NOT AVBL
$$

COZ069>075-170400-
...SAN LUIS VALLEY/SANGRE DE CRISTO MOUNTAINS...

CITY           SKY/WX    TMP DP  RH WIND       PRES   REMARKS
ALAMOSA        PTCLDY    57  43  59 SE10      30.28R
LA VETA PASS   NOT AVBL
SAGUACHE       PTCLDY    64  37  36 CALM      30.29S
$$

COZ035-036-038>040-170400-
...NORTHERN COLORADO FRONT RANGE...

CITY           SKY/WX    TMP DP  RH WIND       PRES   REMARKS
DENVER INTL AP PTCLDY    64  39  39 S13       30.12R
DMNS CITY PARK   N/A     71  38  30 SE5       30.13R
AURORA         PTCLDY    65  39  38 SE13      30.15R
FRONT RANGE AP NOT AVBL
ERIE MUNI ARPT CLEAR     62  46  53 CALM      30.11R
BOULDER MUN AP CLEAR     70  39  32 SW6       30.11S
CENTENNIAL     PTCLDY    70  40  33 S10       30.17R
BROOMFIELD     PTCLDY    70  39  32 VRB5      30.15
FORT COLLINS   PTCLDY    68  43  40 S8        30.11R
LONGMONT       PTCLDY    68  46  45 CALM      30.13R
$$

COZ041-046-047-076>085-087-088-170400-
...PIKES PEAK/PALMER DIVIDE AND SOUTHERN FOOTHILLS...

CITY           SKY/WX    TMP DP  RH WIND       PRES   REMARKS
COLO. SPRINGS  PTCLDY    70  37  29 SE6       30.21R
A. F. ACADEMY  PTCLDY    63  41  43 N2        30.23R
ELLICOTT       NOT AVBL
FALCON         CLOUDY    62  41  46 CALM      30.26S
FORT CARSON    MOCLDY    69  41  35 CALM      30.18R
LIMON          PTCLDY    66  39  37 E8        30.15R
MONUMENT HILL  MOCLDY    59  36  41 SE7       30.26R
TRINIDAD       CLEAR     65  48  54 W9        30.16R
$$

COZ042>045-048>051-090-091-170400-
...NORTHEAST COLORADO...

CITY           SKY/WX    TMP DP  RH WIND       PRES   REMARKS
GREELEY ARPT   PTCLDY    63  39  42 CALM      30.08S
AKRON          CLEAR     65  43  44 SE9       30.08R
BURLINGTON     CLEAR     64  47  53 SE6       30.07R
WRAY           CLEAR     67  49  52 CALM      30.03S
STERLING       CLEAR     63  50  63 CALM      30.02S
HOLYOKE        CLEAR     61  52  72 S7        30.01S
FORT MORGAN    CLEAR     63  42  46 E6        30.07R
$$

COZ086-089-092>099-170400-
...SOUTHEAST COLORADO...

CITY           SKY/WX    TMP DP  RH WIND       PRES   REMARKS
PUEBLO         PTCLDY    71  40  32 CALM      30.07R
LA JUNTA       CLEAR     74  42  31 SE3       30.04R
LAMAR          CLEAR     73  56  54 S8        29.99R
SPRINGFIELD      N/A     65  58  78 S10       30.09R
$$


USA.gov is the U.S. government's official web portal to all federal, state and local government web resources and services.